Regional Weather Roundup
Issued by NWS Green Bay, WI

Home | Current Version | Previous Version | Graphics & Text | Print | Product List | Glossary Off
Versions: 1 2 3 4 5 6 7 8 9 10 11 12 13 14 15 16 17 18 19 20 21 22 23 24 25 26 27 28 29 30 31 32 33 34 35 36 37 38 39 40 41 42 43 44 45 46 47 48 49 50

000
ASUS43 KGRB 240559
RWRGRB

NORTH-CENTRAL AND NORTHEAST WISCONSIN REGIONAL WEATHER ROUNDUP
NATIONAL WEATHER SERVICE GREEN BAY WI
100 AM CDT FRI OCT 24 2014

WIZ005-009-010>012-018-019-240700-
NORTH CENTRAL WISCONSIN

CITY           SKY/WX    TMP DP  RH WIND       PRES   REMARKS
IRONWOOD       CLOUDY    46  45  93 S8        29.95R
MANITOWISH WTR NOT AVBL
ARBOR VITAE    NOT AVBL
EAGLE RIVER    NOT AVBL
LAND O LAKES   NOT AVBL
RHINELANDER    FOG       44  44 100 SW7       30.00F VSB 1/2
PHILLIPS       NOT AVBL
ANTIGO         NOT AVBL
TOMAHAWK       NOT AVBL
MERRILL        NOT AVBL
$$

WIZ013-073-240700-
NORTHEAST WISCONSIN

CITY           SKY/WX    TMP DP  RH WIND       PRES   REMARKS
IRON MOUNTAIN  CLOUDY    46  44  93 W7        29.98F
MARINETTE      CLOUDY    48  46  93 CALM      30.00S
$$

WIZ017-030-035>037-045-240700-
CENTRAL WISCONSIN

CITY           SKY/WX    TMP DP  RH WIND       PRES   REMARKS
MEDFORD        NOT AVBL
WAUSAU         FOG       46  46 100 SW3       30.00F VSB 1/2
MOSINEE        NOT AVBL
MARSHFIELD     FOG       47  46  97 CALM      30.01F VSB 1/2
WISC RAPIDS    CLOUDY    47  46  97 SW3       30.03F FOG
STEVENS POINT  NOT AVBL
WAUPACA        NOT AVBL
SHAWANO        NOT AVBL
CLINTONVILLE   NOT AVBL
$$

WIZ038-039-048-051-240700-
FOX VALLEY

CITY           SKY/WX    TMP DP  RH WIND       PRES   REMARKS
NWS GREEN BAY  CLOUDY    49  48  97 CALM      30.01F FOG
APPLETON       NOT AVBL
OSHKOSH        CLOUDY    49  48  97 VRB3      30.01F FOG
FOND DU LAC    CLOUDY    49  48  97 W5        30.01F FOG
$$

WIZ022-050-052-240700-
EAST CENTRAL WISCONSIN

CITY           SKY/WX    TMP DP  RH WIND       PRES   REMARKS
STURGEON BAY   CLOUDY    48  46  93 SW3       30.01F
MANITOWOC      NOT AVBL
SHEBOYGAN      CLOUDY    50  48  93 MISG      30.02S FOG
$$

LMZ563-521-522-541>543-240700-
LAKESHORE

STATION/POSITION TIME  TEMP    WIND        PRES    VSBY  WAVE
                       AIR SEA DIR/SP/G                  HT/PER
                 (UTC) (F)     (DEG/KT/KT) (MB)    (MI)  (FT/S)
SHEBOYGAN LKSHOR 0500   52 52  200/  7/  8 1017.0F
KEWAUNEE LKSHORE 0500   50     250/  3/  4 1015.5F
NORTHPORT PIER   0500   49     220/  1/  3 1016.3F
N MID LAKE BUOY  0500   51 51  210/ 12/ 14 1016.6F         3/ 5
SISTER BAY LKSHO 0500          180/  7/  9   N/A
CHAMBERS ISLAND  0500   50     220/  6/  9 1016.3F
MENOMINEE LKSHOR 0500   49     240/  6/  7 1016.7F
$$



USA.gov is the U.S. government's official web portal to all federal, state and local government web resources and services.